Simultaneous Nadir Overpasses (SNOs) Predictions

Prediction of SNOs between GOES-15 and NPP Satellite Orbit:

Table of predicted SNOs for the next 14.0 days since TLE Epoch: 12/23/2016
Index Date Time (GOES-15) GOES-15 Lat,Lon NPP Lat,Lon Distance(km) Time Diff (sec)
1 12/25/2016 10:25:03 -0.06,-134.98 0.01,-135.31 37.41 80
2 12/26/2016 10:08:57 -0.05,-134.95 -0.97,-130.77 475.49 80
3 12/27/2016 22:28:13 0.06,-134.87 -0.24,-136.07 137.46 80
4 12/28/2016 22:12:08 0.05,-134.83 0.81,-131.55 375.12 80
5 12/30/2016 10:31:15 -0.06,-134.79 0.39,-136.81 230.10 80
6 12/31/2016 10:15:10 -0.05,-134.75 -0.59,-132.27 281.95 80
7 01/01/2017 22:34:25 0.06,-134.66 -0.60,-137.57 332.35 80
8 01/02/2017 22:18:20 0.06,-134.62 0.38,-133.04 179.41 80
9 01/04/2017 10:37:28
